Location: Newark
(33.6439°N, 114.9881°W)
Time: 16:49:02
(UTC+00:00)

SR - Visible Passes

Search period start: 21 July 2019 00:00
Search period end: 31 July 2019 00:00
Orbit: 580 x 876 km, 66.7° (Epoch: 21 July)

Date Brightness Start Highest point End Pass type
(mag) Time Alt. Az. Time Alt. Az. Time Alt. Az.
21 Jul ? 04:25:50 10° WSW 04:29:37 31° WNW 04:33:34 10° N visible
22 Jul ? 03:35:42 10° SSW 03:39:54 79° WNW 03:44:19 10° NNE visible
23 Jul ? 04:30:00 10° W 04:32:37 16° NW 04:35:20 10° NNW visible
23 Jul ? 11:30:54 10° NNE 11:34:14 17° NE 11:37:43 10° E visible
24 Jul ? 03:38:51 10° SW 03:42:43 34° WNW 03:46:45 10° N visible
25 Jul ? 11:32:36 10° N 11:37:17 30° ENE 11:42:14 10° ESE visible
26 Jul ? 03:42:53 10° W 03:45:42 17° NW 03:48:38 10° N visible
26 Jul ? 10:44:09 10° NNE 10:47:21 16° NE 10:50:39 10° E visible
27 Jul ? 11:34:53 10° NNW 11:40:11 57° ENE 11:45:50 10° SE visible
28 Jul ? 10:45:47 10° N 10:50:25 29° ENE 10:55:17 10° ESE visible
29 Jul ? 09:57:25 10° NNE 10:00:27 15° NE 10:03:34 10° E visible
29 Jul ? 11:37:32 10° NNW 11:42:59 76° WSW 11:48:45 10° SSE visible
30 Jul ? 10:48:02 10° NNW 10:53:20 53° ENE 10:58:57 10° SE visible
